Birmingham, AL

7:49 AM CST on December 16, 2017 (GMT -0600)
Birmingham International

Weather History for KBHM - July, 2014

Change the Weather History Date:

Sunday, July 6, 2014

  Actual Average Record
Temperature  
Mean Temperature 80 °F 81 °F  
Max Temperature 88 °F 91 °F 102 °F (1977)
Min Temperature 71 °F 71 °F 54 °F (1972)
Cooling Degree Days 15 16  
Month to date cooling degree days 80 93  
Year to date cooling degree days 779 757  
Since 1 June cooling degree days 486 475  
Growing Degree Days 28 (Base 50)    
Moisture  
Dew Point 64 °F    
Average Humidity 65    
Maximum Humidity 84    
Minimum Humidity 45    
Precipitation  
Precipitation 0.00 in 0.16 in 4.58 in (1916)
Month to date precipitation T 0.96  
Year to date precipitation 27.67 29.31  
Sea Level Pressure  
Sea Level Pressure 30.07 in    
Wind  
Wind Speed 4 mph (ENE)    
Max Wind Speed 17 mph    
Max Gust Speed 21 mph    
Visibility 10 miles    
Events      
T = Trace of Precipitation, MM = Missing Value Source: NWS Daily Summary

Daily Weather History Graph

Daily Weather History Graph

Search for Another Location

Airport or City:

Trip Planner

Search our weather history database for the weather conditions in past years. The results will help you decide how hot, cold, wet, or windy it might be!

Date:

Astronomy

Jul. 06, 2014 Rise Set
Actual Time 5:42 AM CDT 8:00 PM CDT
Civil Twilight 5:14 AM CDT 8:29 PM CDT
Nautical Twilight 4:38 AM CDT 9:04 PM CDT
Astronomical Twilight 4:00 AM CDT 9:42 PM CDT
Moon 2:10 PM CDT (7/6) 12:49 AM CDT (7/6)
Length of Visible Light 15h 15m
Length of Day
14h 17m
Waxing Gibbous, 62% of the Moon is Illuminated
Jul 6
Waxing Gibbous
Jul 12
Full
Jul 18
Last Quarter
Jul 26
New
Aug 3
First Quarter

Hourly Weather History & Observations

Time (CDT) Temp. Heat Index Dew Point Humidity Pressure Visibility Wind Dir Wind Speed Gust Speed Precip Events Conditions
12:53 AM 70.0 °F - 61.0 °F 73% 30.12 in 10.0 mi North 3.5 mph - N/A   Partly Cloudy
1:53 AM 73.9 °F - 59.0 °F 59% 30.10 in 10.0 mi Calm Calm - N/A   Partly Cloudy
2:53 AM 75.0 °F - 57.9 °F 55% 30.09 in 10.0 mi Variable 3.5 mph - N/A   Scattered Clouds
3:53 AM 73.0 °F - 59.0 °F 61% 30.08 in 10.0 mi NNE 3.5 mph - N/A   Overcast
4:53 AM 73.0 °F - 59.0 °F 61% 30.09 in 10.0 mi NNE 4.6 mph - N/A   Mostly Cloudy
5:53 AM 73.0 °F - 59.0 °F 61% 30.10 in 10.0 mi NE 4.6 mph - N/A   Scattered Clouds
6:53 AM 73.0 °F - 61.0 °F 66% 30.11 in 10.0 mi NE 4.6 mph - N/A   Mostly Cloudy
7:53 AM 75.0 °F - 64.0 °F 69% 30.12 in 10.0 mi East 3.5 mph - N/A   Mostly Cloudy
8:53 AM 78.1 °F - 66.9 °F 68% 30.12 in 10.0 mi East 4.6 mph - N/A   Scattered Clouds
9:53 AM 81.0 °F 83.8 °F 68.0 °F 65% 30.11 in 10.0 mi Variable 3.5 mph - N/A   Partly Cloudy
10:53 AM 84.0 °F 87.8 °F 69.1 °F 61% 30.11 in 10.0 mi East 4.6 mph - N/A   Partly Cloudy
11:53 AM 84.0 °F 86.5 °F 66.9 °F 56% 30.09 in 10.0 mi Variable 4.6 mph - N/A   Mostly Cloudy
12:53 PM 84.9 °F 86.1 °F 64.0 °F 49% 30.09 in 10.0 mi East 6.9 mph - N/A   Overcast
1:53 PM 84.0 °F 86.5 °F 66.9 °F 56% 30.07 in 10.0 mi NW 5.8 mph - N/A   Mostly Cloudy
2:53 PM 87.8 °F 89.4 °F 64.4 °F 46% 30.08 in 10.0 mi WNW 3.5 mph - N/A   Partly Cloudy
3:53 PM 86.0 °F 87.3 °F 64.0 °F 48% 30.03 in 10.0 mi SE 5.8 mph - N/A   Mostly Cloudy
4:53 PM 86.0 °F 86.8 °F 63.0 °F 46% 30.02 in 10.0 mi South 8.1 mph - N/A   Partly Cloudy
5:53 PM 84.9 °F 85.4 °F 62.1 °F 46% 30.01 in 10.0 mi SSE 5.8 mph - N/A   Mostly Cloudy
6:53 PM 84.0 °F 85.8 °F 64.9 °F 53% 30.01 in 10.0 mi ENE 3.5 mph - N/A   Mostly Cloudy
7:53 PM 82.9 °F 84.6 °F 64.9 °F 54% 30.02 in 10.0 mi Calm Calm - N/A   Scattered Clouds
8:53 PM 80.1 °F 81.7 °F 64.0 °F 58% 30.03 in 10.0 mi SE 4.6 mph - N/A   Partly Cloudy
9:53 PM 79.0 °F - 66.0 °F 64% 30.04 in 10.0 mi Calm Calm - N/A   Clear
10:53 PM 75.0 °F - 66.0 °F 73% 30.05 in 10.0 mi Calm Calm - N/A   Clear
11:53 PM 72.0 °F - 66.0 °F 81% 30.04 in 10.0 mi Calm Calm - N/A   Clear